Location: *
(41.7492°S, 135.4150°W)
Time: 18:40:26
(UTC+00:00)

METEOR-M - Pass Details

Date: 20 September 2021
Orbit: 816 x 819 km, 98.5° (Epoch: 15 October)

Event Time Altitude Azimuth Distance (km) Brightness Sun altitude
Exits shadow 12:18:37 78° 82° (E) 849 4.1 -28.7°
Maximum altitude 12:18:46 79° 105° (ESE) 847 4.1 -28.7°
Drops below altitude 10° 12:24:11 10° 191° (S) 2,444 6.8 -27.8°
Sets 12:26:34 0° 192° (SSW) 3,383 7.5 -27.4°
